Temp
-4 -4 -4 -4 -4 -4 -4 -4 -4 -3 -3 -3 -2 -2 -2 -2 -2 -2 -2 -1 -2 -2 -1 -0 0 1 1 1 1 1 1 1 1 2 2 3 2 4 3 3 5 5 4 4 4 4 4 3 3 5 3 -2 -1 -2
-4 -4 -4 -4 -4 -4 -4 -4 -3 -3 -3 -2 -2 -2 -2 -2 -2 -3 -2 -2 -2 -2 -2 -1 0 0 1 2 1 1 2 1 1 2 2 3 2 2 3 3 3 4 4 4 4 5 -0 -1 -0 0 0 -1 -2 -2
-5 -4 -4 -4 -4 -4 -3 -3 -3 -2 -2 -2 -2 -2 -2 -2 -3 -3 -2 -2 -3 -3 -3 -2 -1 0 -0 0 1 0 0 2 1 0 1 2 3 3 3 2 3 3 1 3 3 1 -0 -1 -1 -0 -0 -0 -1 -1
-4 -4 -4 -4 -4 -4 -4 -4 -4 -3 -3 -2 -2 -2 -2 -2 -2 -3 -2 -2 -2 -3 -2 -0 1 2 2 1 1 0 1 1 2 1 1 2 2 2 3 3 2 3 2 2 1 -1 -2 -2 -1 -0 -1 -1 -2 -2
-5 -4 -4 -4 -4 -4 -4 -3 -3 -3 -3 -3 -3 -4 -2 -2 -2 -2 -2 -2 -2 -1 -1 -1 -1 1 1 0 0 0 0 0 0 1 1 1 0 1 0 0 2 2 1 3 4 2 2 0 -1 -2 -1 -2 -2 -2
-5 -5 -4 -4 -4 -4 -4 -4 -3 -3 -3 -3 -3 -3 -2 -2 -2 -3 -3 -3 -2 -2 -2 -0 -0 -1 -1 -1 -1 -1 -1 -0 0 -0 1 0 1 2 2 3 1 -0 1 1 1 -1 -0 -1 -2 -2 -2 -3 -4 -4
-5 -5 -5 -4 -4 -4 -4 -3 -3 -3 -3 -2 -2 -3 -2 -2 -3 -3 -2 -1 -1 -2 -2 -1 -0 -1 -1 -0 -0 -0 -0 -0 -0 -0 -1 1 1 2 1 3 -1 -1 -1 -0 -0 -1 -4 -4 -5 -3 -3 -4 -5 -5
-4 -3 -3 -3 -2 -3 -3 -2 -2 -3 -3 -2 -2 -2 -2 -2 -3 -3 -1 -1 -1 -2 -1 -1 0 -1 -1 -1 -1 -1 -1 -1 -1 1 0 2 1 1 3 -1 -3 -3 -3 -3 -2 -1 -1 -3 -4 -4 -5 -5 -6 -6
-2 -2 -2 -1 -1 -2 -0 -1 -2 -2 -2 -2 -2 -2 -3 -3 -3 -3 -1 -2 -2 -1 -1 -1 -0 0 -1 -1 -0 0 1 0 0 1 1 1 1 3 1 -1 -3 -3 -2 -2 -2 -2 -4 -4 -5 -6 -5 -6 -7 -8
-2 -2 -2 -1 -1 0 1 -0 -1 -2 -1 -2 -2 -2 -2 -2 -2 -2 -2 -2 -2 -1 -1 -0 -1 0 -0 -1 -1 0 -0 1 2 1 -0 1 1 -1 -1 -1 -1 -2 -2 -2 -4 -5 -5 -6 -6 -6 -6 -7 -7 -8
-2 -2 -2 -1 1 1 1 -0 -1 -2 -2 -2 -2 -2 -2 -1 -1 -2 -2 -1 -1 -1 -1 -1 -0 1 1 1 1 -0 0 -0 2 1 2 1 1 -1 -2 -1 -1 -1 -2 -2 -2 -2 -3 -3 -5 -7 -7 -7 -7 -7
-2 -2 -2 -2 -2 -2 -2 -2 -2 -2 -1 -1 -1 -2 -2 -2 -1 -1 -2 -1 -0 1 -1 -0 0 1 1 2 1 0 1 0 2 -2 1 1 -1 -3 -2 -2 -2 -2 -2 -2 -2 -3 -4 -4 -4 -5 -6 -7 -7 -7
-3 -2 -2 -2 -2 -2 -2 -2 -2 -1 -1 -1 0 -1 -2 -2 -3 -2 -3 -1 -1 -1 -1 -0 -1 1 1 2 -1 0 -0 -0 -2 -1 0 -1 -3 -3 -2 -2 -2 -2 -2 -2 -3 -4 -4 -5 -5 -5 -6 -6 -6 -7
-3 -2 -2 -2 -2 -2 -2 -2 -1 -0 1 1 -0 -3 -3 -4 -2 -2 -1 -2 -2 -1 -0 1 -2 -1 -2 -2 -4 -1 -3 -2 -1 -1 -0 -3 -3 -2 -2 -1 -1 -2 -2 -3 -3 -4 -4 -5 -5 -6 -6 -6 -6 -7
-2 -2 -2 -2 -2 -2 -2 0 1 1 0 -1 -1 -3 -2 -3 -2 -3 -2 -2 -2 -1 1 1 -1 -1 -3 -3 -3 -2 -2 -2 -2 -2 -3 -3 -3 -2 -1 -1 -2 -2 -3 -3 -3 -4 -5 -5 -5 -6 -6 -6 -6 -7
-2 -1 -2 -1 -1 -0 -0 1 1 1 -1 -2 -3 -2 -3 -2 -1 -2 -2 -2 -1 1 2 2 -2 -2 -2 -2 -2 -2 -1 -2 -3 -3 -3 -3 -2 -2 -2 -2 -2 -2 -3 -3 -4 -4 -4 -5 -5 -6 -6 -6 -6 -7
-1 -1 -1 -1 -1 -1 -0 -0 -0 -1 -2 -3 -4 -4 -4 -3 -3 -3 -2 -1 0 2 -2 -1 -2 -2 -2 -2 -2 -2 -3 -3 -4 -3 -3 -3 -2 -2 -2 -2 -2 -2 -3 -3 -4 -4 -5 -5 -6 -6 -6 -6 -7 -7
-1 -1 -1 -0 -0 0 -0 -1 -1 -2 -4 -4 -4 -4 -3 -3 -3 -2 -1 0 1 1 -0 -1 -2 -3 -4 -2 -1 -2 -4 -4 -3 -3 -3 -3 -3 -3 -2 -2 -2 -4 -4 -4 -4 -4 -5 -5 -6 -6 -6 -6 -7 -7
-1 -1 -1 0 1 0 -1 -1 -2 -4 -4 -4 -3 -3 -3 -3 -3 -2 -1 1 1 1 0 -2 -2 -2 -1 -2 -2 -3 -3 -3 -4 -4 -4 -3 -3 -3 -4 -4 -4 -5 -5 -5 -5 -5 -5 -5 -5 -6 -6 -7 -7 -8
-1 -1 -0 0 1 -0 -2 -2 -2 -3 -5 -4 -3 -3 -3 -3 -2 -2 -0 0 0 -1 -2 -3 -3 -3 -3 -3 -3 -2 -3 -3 -4 -4 -5 -4 -4 -4 -4 -4 -4 -5 -5 -5 -5 -5 -6 -6 -6 -6 -6 -7 -7 -8
-1 -1 0 0 -0 -1 -2 -3 -3 -3 -3 -3 -3 -3 -2 -2 -2 -2 -2 -1 -2 -4 -4 -3 -3 -3 -3 -3 -4 -4 -4 -4 -5 -4 -4 -5 -4 -5 -4 -5 -5 -5 -5 -5 -5 -5 -6 -6 -6 -7 -7 -7 -8 -8
-1 -0 -0 -0 -1 -2 -3 -3 -3 -3 -3 -3 -3 -3 -4 -5 -4 -3 -3 -4 -4 -5 -4 -4 -3 -4 -4 -4 -5 -5 -5 -6 -6 -5 -6 -5 -5 -5 -5 -6 -6 -5 -6 -6 -6 -6 -6 -7 -7 -7 -8 -8 -9 -9
-1 -1 -1 -1 -2 -2 -4 -3 -3 -3 -6 -5 -4 -5 -5 -5 -3 -3 -5 -5 -5 -4 -4 -3 -3 -3 -4 -4 -4 -5 -5 -5 -5 -5 -6 -6 -6 -6 -7 -7 -7 -6 -6 -6 -7 -7 -8 -8 -8 -8 -9 -9 -9 -10
-1 -1 -2 -3 -3 -7 -4 -3 -3 -3 -4 -4 -4 -5 -5 -5 -3 -5 -5 -4 -4 -4 -3 -3 -3 -4 -4 -4 -4 -4 -4 -4 -5 -5 -6 -6 -6 -7 -7 -7 -7 -7 -8 -7 -7 -8 -8 -8 -9 -9 -9 -10 -10 -10
-1 -4 -4 -9 -5 -8 -9 -9 -8 -6 -7 -6 -7 -6 -4 -4 -8 -8 -5 -4 -4 -4 -4 -4 -4 -4 -4 -4 -4 -4 -4 -5 -5 -5 -5 -6 -6 -6 -7 -7 -8 -8 -8 -8 -8 -8 -9 -9 -9 -9 -10 -10 -10 -11
-9 -5 -6 -9 -9 -8 -8 -8 -10 -9 -8 -8 -7 -5 -5 -8 -8 -6 -4 -4 -3 -4 -5 -5 -5 -5 -5 -5 -5 -5 -5 -5 -5 -5 -5 -5 -6 -6 -6 -6 -7 -7 -8 -8 -9 -9 -9 -9 -9 -10 -10 -11 -11 -11
-9 -10 -5 -5 -5 -5 -8 -7 -6 -9 -9 -8 -8 -8 -10 -9 -8 -6 -5 -5 -4 -4 -5 -6 -6 -5 -5 -5 -5 -5 -5 -5 -5 -5 -5 -6 -6 -6 -7 -7 -7 -7 -8 -8 -8 -9 -9 -9 -10 -10 -10 -11 -11 -11
-5 -5 -9 -6 -6 -6 -11 -12 -11 -10 -9 -7 -8 -9 -9 -8 -6 -5 -5 -5 -6 -6 -7 -6 -6 -6 -6 -5 -5 -5 -5 -6 -6 -6 -6 -6 -6 -6 -7 -7 -7 -7 -7 -8 -8 -9 -9 -9 -9 -10 -10 -10 -10 -11
-5 -5 -5 -12 -8 -8 -7 -8 -8 -6 -5 -6 -10 -10 -8 -4 -4 -5 -5 -6 -6 -7 -7 -6 -6 -6 -6 -6 -6 -6 -6 -6 -7 -7 -7 -7 -7 -7 -7 -7 -8 -8 -8 -8 -9 -9 -9 -10 -9 -10 -10 -10 -10 -10
-6 -5 -6 -12 -12 -10 -7 -5 -5 -5 -5 -5 -5 -5 -5 -5 -5 -5 -5 -6 -6 -7 -7 -7 -7 -7 -7 -7 -7 -8 -9 -8 -8 -8 -7 -7 -7 -7 -7 -8 -8 -8 -8 -8 -9 -9 -9 -9 -9 -10 -10 -10 -10 -10
-6 -6 -6 -9 -10 -6 -6 -6 -6 -6 -6 -6 -6 -6 -5 -5 -5 -5 -6 -6 -7 -7 -7 -7 -7 -7 -7 -8 -8 -8 -8 -8 -8 -8 -8 -7 -7 -7 -7 -8 -8 -8 -8 -8 -8 -9 -9 -9 -9 -9 -9 -10 -10 -10
-6 -6 -7 -10 -9 -6 -7 -6 -6 -7 -7 -6 -6 -6 -6 -6 -5 -5 -6 -7 -7 -7 -7 -7 -7 -7 -7 -8 -8 -8 -8 -8 -8 -7 -8 -8 -8 -8 -8 -8 -8 -8 -9 -9 -9 -9 -9 -9 -9 -9 -9 -10 -10 -11
-7 -7 -7 -8 -8 -7 -7 -7 -8 -9 -8 -8 -7 -6 -6 -6 -6 -5 -5 -5 -7 -7 -7 -7 -7 -7 -7 -8 -8 -8 -8 -8 -8 -8 -9 -8 -8 -8 -8 -8 -9 -9 -9 -9 -9 -9 -9 -9 -9 -10 -10 -10 -11 -11
Height
1331 1332 1333 1334 1335 1336 1338 1339 1340 1342 1344 1350 1356 1362 1368 1375 1379 1384 1390 1394 1402 1408 1410 1410 1411 1411 1414 1415 1421 1424 1427 1427 1431 1433 1431 1429 1430 1424 1425 1423 1418 1417 1421 1420 1425 1426 1425 1417 1423 1423 1421 1422 1424 1427
1329 1330 1331 1332 1334 1335 1337 1338 1339 1341 1346 1351 1357 1362 1367 1372 1378 1384 1389 1393 1399 1406 1408 1407 1408 1410 1411 1413 1417 1420 1420 1420 1422 1423 1423 1422 1424 1425 1421 1417 1418 1416 1410 1414 1415 1412 1417 1415 1417 1417 1420 1421 1423 1427
1326 1327 1328 1329 1331 1333 1334 1336 1338 1340 1344 1349 1354 1360 1366 1372 1378 1382 1387 1392 1399 1404 1405 1404 1402 1403 1405 1409 1412 1415 1416 1417 1416 1417 1418 1417 1415 1414 1414 1413 1412 1412 1412 1410 1413 1414 1415 1417 1417 1418 1421 1420 1423 1426
1321 1322 1324 1325 1327 1330 1332 1334 1335 1333 1337 1342 1349 1357 1364 1370 1376 1381 1385 1391 1397 1400 1400 1392 1392 1394 1397 1402 1404 1407 1412 1413 1414 1415 1416 1413 1412 1410 1406 1405 1409 1408 1410 1411 1414 1416 1416 1415 1415 1417 1419 1420 1423 1428
1317 1317 1319 1320 1322 1325 1327 1329 1331 1334 1336 1339 1343 1351 1360 1367 1374 1381 1385 1389 1392 1397 1391 1391 1388 1388 1390 1393 1396 1401 1405 1410 1411 1413 1411 1409 1407 1407 1406 1408 1405 1404 1404 1403 1399 1400 1403 1405 1409 1414 1417 1420 1423 1426
1311 1310 1311 1313 1316 1319 1322 1325 1329 1331 1334 1336 1340 1347 1356 1365 1373 1380 1385 1386 1388 1393 1397 1390 1385 1383 1385 1387 1390 1394 1397 1404 1406 1405 1404 1403 1400 1401 1400 1400 1400 1400 1399 1400 1401 1402 1404 1405 1409 1413 1416 1419 1423 1427
1302 1301 1301 1303 1307 1312 1317 1321 1326 1330 1333 1337 1341 1347 1355 1364 1370 1375 1378 1379 1382 1390 1391 1385 1379 1378 1378 1382 1385 1389 1391 1395 1400 1398 1399 1397 1396 1396 1398 1396 1399 1399 1400 1401 1401 1403 1408 1409 1410 1414 1418 1421 1425 1429
1290 1286 1285 1285 1291 1301 1310 1317 1324 1329 1332 1339 1344 1350 1358 1366 1373 1375 1373 1376 1379 1387 1390 1384 1377 1374 1374 1376 1380 1385 1389 1392 1396 1395 1394 1393 1395 1396 1394 1398 1399 1400 1401 1403 1404 1404 1404 1406 1411 1415 1419 1422 1427 1431
1279 1278 1276 1277 1282 1289 1301 1314 1324 1331 1336 1342 1347 1355 1363 1367 1369 1368 1373 1375 1376 1382 1378 1379 1375 1373 1374 1376 1379 1385 1388 1392 1393 1392 1392 1394 1395 1392 1393 1395 1398 1400 1402 1403 1404 1404 1406 1408 1412 1416 1420 1424 1427 1432
1286 1281 1276 1277 1282 1290 1304 1316 1325 1333 1338 1344 1350 1354 1357 1361 1366 1369 1374 1374 1377 1371 1374 1374 1375 1374 1377 1378 1382 1384 1384 1387 1387 1393 1393 1392 1392 1394 1393 1394 1397 1400 1401 1404 1405 1409 1410 1412 1414 1417 1421 1425 1429 1433
1296 1292 1288 1287 1293 1302 1313 1322 1330 1334 1341 1346 1349 1352 1357 1360 1366 1367 1368 1370 1371 1371 1371 1372 1373 1373 1375 1375 1378 1381 1384 1388 1387 1392 1390 1392 1390 1394 1395 1396 1400 1401 1403 1405 1406 1406 1407 1409 1413 1417 1422 1426 1430 1433
1308 1307 1307 1308 1312 1317 1324 1330 1334 1339 1344 1346 1347 1354 1360 1362 1364 1364 1369 1369 1367 1366 1369 1370 1371 1373 1375 1375 1377 1383 1383 1387 1385 1393 1390 1391 1394 1395 1396 1399 1401 1403 1404 1406 1406 1406 1407 1411 1415 1418 1422 1426 1430 1434
1321 1320 1321 1322 1324 1328 1332 1337 1342 1345 1347 1350 1352 1357 1359 1362 1367 1366 1373 1368 1368 1366 1367 1369 1373 1373 1375 1376 1381 1382 1386 1390 1393 1393 1389 1393 1394 1396 1397 1400 1402 1404 1405 1406 1407 1408 1410 1413 1416 1420 1423 1427 1431 1435
1332 1332 1332 1333 1335 1338 1340 1344 1347 1348 1349 1349 1352 1359 1360 1366 1365 1366 1364 1365 1366 1365 1366 1368 1372 1373 1377 1380 1386 1386 1394 1393 1393 1393 1390 1395 1395 1396 1399 1401 1403 1405 1406 1408 1409 1411 1412 1414 1417 1421 1425 1428 1432 1435
1341 1341 1340 1341 1342 1344 1347 1348 1350 1350 1349 1352 1355 1364 1363 1365 1364 1365 1365 1365 1366 1367 1367 1369 1374 1376 1381 1384 1388 1391 1393 1393 1393 1392 1394 1394 1395 1397 1400 1402 1404 1406 1408 1409 1411 1413 1415 1417 1419 1422 1426 1429 1433 1436
1348 1347 1347 1349 1350 1351 1351 1351 1351 1352 1355 1359 1363 1366 1366 1365 1364 1365 1366 1366 1367 1367 1368 1370 1376 1380 1384 1385 1387 1391 1390 1393 1395 1395 1394 1394 1396 1398 1401 1403 1405 1407 1409 1411 1413 1415 1416 1418 1421 1423 1426 1429 1433 1436
1354 1353 1354 1353 1354 1354 1353 1354 1355 1357 1362 1365 1369 1369 1368 1368 1368 1368 1367 1368 1368 1369 1373 1374 1379 1383 1386 1386 1388 1391 1392 1393 1393 1394 1394 1395 1397 1399 1401 1403 1405 1407 1409 1411 1413 1416 1418 1420 1422 1424 1426 1429 1432 1436
1358 1358 1358 1357 1356 1356 1355 1355 1358 1363 1368 1370 1370 1371 1370 1369 1370 1370 1370 1369 1370 1371 1374 1376 1380 1385 1391 1389 1387 1389 1391 1393 1394 1395 1395 1396 1398 1399 1401 1403 1405 1408 1410 1411 1414 1416 1418 1420 1422 1424 1426 1429 1432 1435
1361 1361 1360 1359 1358 1357 1358 1361 1363 1368 1372 1373 1373 1372 1372 1373 1373 1373 1372 1371 1372 1373 1375 1378 1382 1385 1386 1387 1387 1388 1390 1392 1394 1395 1396 1397 1398 1400 1401 1403 1405 1407 1409 1411 1413 1415 1417 1419 1421 1423 1425 1427 1430 1434
1364 1363 1362 1360 1359 1358 1362 1366 1368 1370 1374 1376 1376 1375 1375 1376 1375 1375 1374 1374 1374 1375 1379 1383 1385 1386 1387 1388 1388 1388 1389 1391 1393 1395 1396 1397 1399 1400 1401 1403 1405 1407 1409 1410 1412 1414 1416 1418 1420 1422 1424 1426 1429 1432
1365 1364 1363 1363 1361 1362 1367 1369 1371 1373 1375 1376 1377 1377 1378 1377 1377 1377 1377 1376 1377 1381 1384 1385 1386 1387 1388 1388 1388 1389 1390 1391 1393 1395 1396 1397 1399 1400 1401 1403 1404 1406 1408 1409 1411 1412 1414 1416 1418 1420 1422 1425 1428 1431
1366 1365 1365 1364 1365 1367 1370 1372 1374 1375 1377 1377 1378 1378 1379 1379 1379 1379 1379 1378 1382 1383 1384 1385 1386 1388 1389 1389 1390 1390 1391 1392 1394 1394 1396 1398 1399 1400 1401 1402 1403 1404 1406 1408 1409 1411 1412 1414 1416 1418 1421 1423 1426 1430
1368 1367 1366 1367 1368 1370 1376 1375 1375 1376 1378 1379 1379 1380 1381 1381 1380 1380 1381 1382 1383 1383 1384 1385 1387 1388 1389 1390 1391 1392 1393 1394 1395 1395 1396 1397 1398 1399 1400 1400 1401 1403 1404 1405 1407 1409 1410 1412 1414 1416 1419 1421 1424 1428
1369 1369 1369 1370 1372 1375 1375 1375 1376 1377 1377 1379 1380 1381 1382 1381 1381 1381 1382 1382 1383 1384 1385 1386 1387 1388 1389 1390 1391 1392 1393 1394 1395 1396 1396 1397 1397 1398 1398 1399 1400 1401 1402 1403 1404 1406 1408 1410 1412 1414 1417 1420 1423 1427
1372 1374 1374 1375 1375 1376 1379 1379 1379 1379 1382 1381 1383 1383 1381 1381 1384 1385 1381 1381 1382 1383 1385 1386 1387 1388 1389 1390 1391 1392 1393 1394 1394 1395 1396 1397 1397 1397 1398 1398 1399 1400 1400 1401 1402 1403 1405 1408 1410 1413 1415 1418 1422 1425
1376 1375 1375 1375 1377 1377 1379 1382 1383 1382 1382 1383 1382 1380 1381 1383 1386 1382 1378 1378 1380 1382 1384 1385 1386 1387 1388 1389 1390 1391 1392 1393 1394 1395 1395 1396 1396 1397 1397 1397 1398 1398 1399 1400 1401 1402 1404 1407 1409 1412 1415 1418 1422 1425
1378 1377 1375 1375 1375 1376 1377 1377 1378 1379 1382 1381 1380 1382 1385 1388 1385 1378 1377 1378 1379 1380 1382 1382 1383 1384 1386 1387 1388 1389 1391 1392 1393 1393 1393 1394 1394 1395 1396 1396 1396 1397 1397 1398 1399 1401 1403 1406 1409 1412 1414 1418 1421 1424
1373 1374 1377 1376 1375 1375 1377 1380 1380 1380 1379 1378 1379 1382 1383 1381 1378 1377 1376 1377 1378 1378 1379 1380 1381 1382 1383 1385 1386 1388 1389 1390 1390 1391 1391 1392 1392 1393 1393 1394 1394 1395 1396 1397 1399 1400 1403 1406 1408 1411 1414 1417 1420 1423
1373 1374 1375 1376 1375 1376 1376 1377 1377 1377 1377 1377 1379 1378 1376 1375 1375 1375 1376 1376 1376 1377 1378 1379 1380 1381 1382 1384 1385 1386 1387 1388 1388 1388 1389 1390 1390 1391 1391 1392 1393 1394 1395 1396 1398 1401 1403 1406 1408 1411 1414 1416 1419 1422
1374 1374 1374 1376 1377 1377 1376 1376 1376 1376 1376 1376 1376 1375 1375 1374 1374 1374 1375 1375 1375 1376 1377 1378 1379 1381 1381 1382 1383 1384 1383 1383 1384 1386 1386 1387 1388 1389 1389 1390 1391 1392 1393 1395 1398 1400 1402 1404 1407 1409 1412 1414 1417 1419
1375 1375 1374 1374 1374 1374 1374 1375 1375 1375 1374 1374 1373 1374 1373 1372 1372 1372 1372 1372 1373 1374 1375 1376 1377 1378 1379 1380 1380 1381 1381 1381 1381 1382 1383 1384 1385 1386 1387 1388 1389 1391 1393 1394 1397 1399 1401 1403 1405 1408 1410 1412 1415 1417
1375 1374 1374 1375 1373 1373 1374 1374 1373 1372 1371 1371 1370 1370 1370 1370 1370 1368 1365 1367 1368 1370 1371 1373 1374 1376 1377 1378 1379 1379 1379 1380 1380 1380 1381 1383 1384 1384 1385 1386 1388 1390 1391 1393 1395 1397 1399 1401 1404 1406 1408 1410 1413 1415
1374 1373 1373 1373 1372 1372 1372 1373 1371 1370 1369 1367 1366 1365 1366 1367 1366 1362 1360 1360 1363 1365 1368 1370 1371 1373 1374 1375 1377 1377 1378 1378 1379 1379 1380 1381 1382 1383 1384 1385 1387 1388 1390 1391 1393 1395 1397 1399 1401 1404 1406 1408 1411 1413
Wind_Speed
8 8 8 8 8 7 5 4 5 5 9 13 16 19 22 24 24 24 23 17 20 9 8 6 7 6 8 10 5 5 3 3 5 8 7 5 5 6 3 3 6 9 7 4 3 6 10 11 8 8 1 2 10 17
8 9 9 10 10 10 9 9 10 9 9 14 17 19 20 22 23 21 20 20 18 10 5 13 21 20 16 14 16 11 4 5 6 4 4 3 4 4 3 4 4 6 5 6 8 4 1 3 2 4 6 7 15 19
11 12 12 12 12 12 12 12 16 16 19 22 22 23 22 23 24 24 21 16 15 11 12 20 25 19 20 24 19 8 12 10 7 7 3 2 5 4 6 6 4 3 2 3 3 4 3 6 8 6 6 10 17 21
14 15 15 15 14 14 14 14 16 7 15 23 31 28 26 25 23 24 23 19 16 6 3 7 9 16 27 25 26 24 17 6 11 10 4 3 4 5 4 1 4 3 8 5 2 1 1 9 14 14 12 13 17 20
17 18 19 19 18 15 14 12 8 10 13 14 27 32 33 27 25 21 20 22 20 18 3 4 8 17 17 18 24 27 28 24 7 4 4 4 3 3 1 1 3 6 5 5 5 8 4 3 21 18 17 18 20 24
18 20 21 21 18 17 14 13 11 11 12 13 21 32 33 31 25 21 11 22 24 24 7 3 6 10 16 18 23 24 27 22 11 6 3 4 6 5 4 3 0 2 4 4 1 10 4 6 18 19 17 17 19 22
21 23 26 27 27 26 23 19 16 12 13 16 19 24 29 29 30 29 8 4 24 27 4 3 2 5 7 19 16 19 24 14 8 3 4 4 3 3 2 3 2 1 3 6 9 13 10 15 10 18 16 19 20 22
22 23 23 27 34 36 28 24 21 14 9 23 20 24 26 27 27 33 12 6 16 26 8 3 2 2 5 5 6 8 8 8 9 4 3 2 3 1 3 2 5 6 11 13 7 3 3 16 22 20 20 23 25 26
12 8 2 10 17 26 36 31 23 19 22 22 22 25 25 24 15 26 31 10 30 10 4 2 1 1 3 4 6 5 5 2 3 2 1 2 1 3 1 9 11 14 6 9 6 7 14 19 23 23 23 24 24 24
20 18 15 19 23 33 38 34 27 23 30 28 30 13 4 15 12 14 12 12 12 6 6 2 5 2 5 6 4 5 3 2 2 1 2 0 2 1 2 8 13 12 9 13 16 10 14 17 21 23 23 23 23 26
32 34 35 32 36 39 35 33 32 28 26 23 6 4 18 28 16 4 4 3 3 2 5 3 4 2 3 2 2 2 2 0 2 1 2 1 1 1 6 14 16 9 11 9 3 1 11 17 23 22 22 22 23 26
32 39 38 41 38 36 35 35 34 29 14 5 17 20 14 4 2 2 0 0 2 2 2 3 3 3 3 3 3 2 2 0 2 1 1 1 0 5 13 17 9 8 9 4 3 4 12 15 19 20 23 23 23 26
33 27 34 38 39 38 35 33 28 30 24 10 4 5 2 0 4 4 3 1 1 3 5 5 2 2 3 4 4 2 3 1 1 1 1 0 2 10 14 16 10 10 7 6 8 10 11 14 16 17 21 21 20 21
26 24 23 24 29 29 31 20 11 10 3 3 3 3 2 2 2 1 1 1 0 2 11 12 5 2 3 3 1 3 1 0 2 1 1 0 5 14 15 12 11 11 8 8 10 11 12 13 15 16 15 17 18 20
23 22 19 18 23 22 18 14 12 8 5 5 5 4 3 2 1 2 2 2 2 11 8 7 6 3 2 3 2 3 2 1 2 2 1 1 9 16 15 12 9 10 9 8 9 11 11 12 14 15 15 15 16 18
21 23 26 25 18 19 15 10 7 7 5 4 6 2 3 1 2 4 5 3 5 9 8 5 3 3 2 3 2 1 4 3 1 2 2 4 13 15 13 11 10 8 7 8 10 10 10 10 13 15 16 15 16 18
12 17 14 14 8 4 6 6 4 6 4 4 3 6 3 2 2 3 3 4 3 3 2 2 3 1 2 2 2 2 2 1 2 3 4 5 11 14 12 10 9 8 8 10 11 11 11 10 13 15 16 17 17 18
9 8 8 6 4 3 11 6 5 5 5 7 3 6 8 7 3 7 5 7 4 4 2 2 4 3 2 2 2 2 3 5 5 6 7 6 7 8 10 10 10 10 9 10 11 12 13 12 13 15 15 17 19 20
6 5 6 9 8 3 4 6 5 4 5 3 4 6 6 6 11 9 8 9 9 8 8 3 3 2 2 1 1 4 8 7 7 6 7 6 5 7 10 9 10 12 11 11 12 13 12 12 12 14 15 18 21 22
6 4 4 9 8 4 4 5 4 5 3 2 4 5 3 4 6 7 8 6 5 4 5 3 1 1 2 1 1 2 7 9 10 10 7 7 7 8 9 9 10 12 12 12 11 11 12 13 13 13 15 17 20 22
5 5 4 7 6 8 5 3 5 4 3 3 4 4 3 3 5 5 6 5 4 3 2 3 6 7 5 2 2 5 7 8 10 8 9 10 10 9 9 8 10 11 11 11 11 11 12 13 12 14 14 16 18 19
7 5 2 4 5 4 5 5 4 3 2 2 2 3 3 2 3 4 5 5 3 2 4 8 9 10 9 7 7 6 9 9 7 6 9 10 12 12 11 10 10 10 10 9 10 10 11 12 12 13 14 15 16 18
5 4 4 4 3 4 2 2 2 2 2 0 2 2 2 1 2 3 3 2 2 5 8 10 8 8 9 10 8 9 8 8 6 5 5 7 8 8 9 10 11 10 10 11 10 10 11 11 13 13 14 16 18 20
5 3 3 3 4 1 1 2 2 2 2 1 2 1 0 1 2 3 1 1 5 9 7 6 6 10 10 10 9 7 6 5 4 4 2 2 6 6 6 7 9 10 9 10 10 11 12 13 13 15 17 19 22 24
2 4 2 3 3 3 3 3 3 3 1 0 2 1 2 1 1 0 2 5 9 8 8 7 7 5 5 5 6 7 6 6 5 3 2 2 2 5 5 6 7 7 7 8 10 12 13 14 14 16 18 21 24 25
3 3 2 3 1 2 3 1 2 3 2 1 2 1 2 2 1 3 2 7 8 9 8 8 9 11 10 8 8 8 7 6 5 3 3 4 4 5 5 4 5 7 7 7 8 11 14 15 14 15 18 20 22 24
2 2 1 1 1 2 2 1 2 2 2 3 2 2 2 1 3 2 5 6 6 7 7 7 7 9 12 10 8 8 9 10 9 6 5 6 7 7 6 6 5 7 7 8 9 9 14 16 15 14 16 17 18 19
2 3 3 3 1 1 3 1 1 3 2 2 4 2 5 5 2 3 4 5 6 7 6 7 7 9 9 9 8 7 7 7 7 6 5 6 8 9 8 7 6 5 6 8 9 11 14 13 14 14 15 16 17 17
1 3 3 3 1 2 1 1 1 1 1 3 3 2 2 2 2 3 4 4 6 8 7 8 9 9 9 10 9 8 8 8 9 8 8 8 8 8 8 7 6 6 8 12 12 11 12 12 12 13 13 14 14 15
1 0 2 1 3 2 3 2 2 3 4 5 3 2 3 4 4 5 6 6 4 8 10 10 10 10 10 9 9 8 8 7 9 9 10 9 8 8 8 8 8 8 11 14 15 15 15 15 15 15 16 16 16 16
1 1 1 0 2 2 1 3 6 8 7 6 8 7 6 4 4 8 10 10 9 10 10 12 12 11 10 10 8 6 6 6 8 9 10 8 6 6 8 9 10 10 11 13 15 15 14 14 13 13 14 16 17 17
2 1 2 1 1 2 4 3 3 3 3 4 5 7 4 6 5 5 10 17 17 15 13 11 10 8 6 6 5 4 3 2 3 6 9 9 7 6 8 11 11 11 12 13 13 14 14 13 14 14 14 15 16 16
2 2 2 2 1 1 3 3 2 3 5 4 5 6 8 5 6 6 7 12 18 18 16 14 13 12 11 10 9 8 7 6 4 4 9 10 9 8 8 12 12 12 12 12 13 14 14 14 14 13 14 15 15 15
Wind_Direction
259 235 226 224 227 237 239 227 218 183 162 176 182 184 186 187 194 197 205 203 196 205 226 213 206 168 165 183 175 165 127 173 168 196 203 189 222 210 253 256 202 212 180 205 177 209 248 152 126 192 149 113 161 160
244 238 238 238 233 237 240 251 249 221 216 207 198 196 196 194 195 194 197 208 204 209 232 233 249 241 232 232 207 189 245 154 189 190 205 182 194 182 196 237 203 210 198 181 195 209 346 185 62 194 173 169 169 158
246 246 245 245 246 250 256 243 262 246 230 218 207 205 200 200 197 200 206 201 186 211 261 257 247 242 234 231 231 175 217 226 191 220 180 215 240 173 195 216 210 228 195 159 147 182 215 223 217 193 200 178 175 180
252 252 252 254 256 252 248 246 257 276 215 218 212 205 203 203 200 203 206 208 206 170 235 263 243 239 245 238 230 231 225 219 238 194 227 212 230 206 200 180 205 204 157 164 266 244 211 241 214 199 177 167 165 172
256 254 255 254 253 253 252 249 248 248 219 209 206 204 201 201 201 203 210 216 218 202 227 253 258 246 242 230 228 227 226 224 198 188 207 214 220 183 138 90 232 195 173 185 213 195 193 208 194 184 172 167 170 171
266 263 258 251 243 245 243 241 224 243 194 193 192 193 195 198 193 190 208 226 218 222 243 261 231 210 219 234 230 226 218 209 202 195 204 206 240 185 166 198 219 194 196 204 214 159 180 150 169 174 174 169 167 172
275 266 257 248 239 233 230 228 213 222 191 171 179 181 182 187 189 182 186 197 208 208 234 262 234 217 226 192 190 196 193 184 193 190 234 197 172 155 140 214 153 190 191 162 150 140 102 153 166 168 168 157 159 158
282 272 259 243 235 228 219 210 201 203 171 168 166 170 172 176 192 202 207 290 190 186 214 244 262 303 141 145 129 136 144 155 195 233 184 125 129 119 225 144 134 147 144 141 161 224 229 172 159 158 162 157 153 153
23 51 258 191 172 181 195 197 181 167 151 154 151 154 157 174 186 215 215 261 181 182 181 181 281 313 89 61 88 131 170 159 178 166 115 168 148 215 137 171 167 161 160 155 133 129 148 156 157 161 165 162 156 158
67 64 100 133 148 155 162 163 163 162 159 161 155 151 136 173 189 179 164 178 198 212 193 213 169 165 153 177 155 173 160 114 127 47 107 159 201 330 336 183 167 162 160 152 119 130 150 157 164 168 173 171 168 163
84 78 84 109 129 138 145 148 148 148 147 145 144 99 123 142 151 167 145 158 188 217 182 169 183 134 144 106 117 42 127 110 139 158 216 191 210 134 136 145 150 146 156 147 47 220 197 188 173 170 173 174 173 171
93 103 102 104 111 121 131 142 154 157 146 111 117 121 129 103 170 123 160 169 208 183 154 138 137 117 106 96 102 33 105 96 132 351 129 230 140 150 150 150 129 142 154 154 73 143 173 181 185 184 179 178 180 181
75 90 106 123 125 130 137 147 146 124 114 132 98 104 188 40 67 130 172 244 114 171 160 156 90 86 102 71 68 73 76 125 141 57 220 242 139 156 152 154 140 138 140 134 119 133 150 164 178 182 178 182 181 182
70 71 74 101 122 127 115 104 116 111 67 77 70 68 61 16 84 157 70 112 194 201 149 129 81 66 53 58 6 89 48 188 81 205 225 230 169 158 153 151 149 148 143 139 137 146 152 159 166 175 183 182 182 182
72 80 83 91 126 90 106 116 118 128 50 59 45 51 40 344 167 157 124 119 111 145 132 101 73 81 36 87 33 114 84 183 219 219 223 151 167 162 160 158 152 151 148 145 155 157 156 161 167 170 176 177 180 178
74 68 72 120 107 82 91 107 98 60 60 55 47 62 349 339 55 61 78 86 107 120 99 71 95 63 52 112 99 151 140 207 217 215 243 149 167 171 173 169 141 139 150 156 162 158 152 160 171 170 170 178 182 184
77 69 69 61 97 24 50 83 67 54 56 53 43 34 52 52 56 68 67 70 106 87 79 95 69 79 116 85 87 164 161 167 138 133 143 156 167 176 178 167 161 165 171 174 176 177 170 167 174 178 177 179 183 186
71 52 44 53 39 17 46 52 78 72 68 43 64 20 55 54 63 54 44 63 81 89 85 100 120 66 91 122 161 144 121 116 124 133 140 144 154 168 180 179 182 178 181 183 187 189 189 188 189 190 189 186 183 184
53 34 30 26 14 40 52 42 43 85 57 49 41 47 56 65 63 58 75 85 87 96 108 69 82 94 116 55 83 129 161 163 164 155 144 147 161 175 179 182 181 179 179 182 186 192 200 201 203 199 196 191 189 187
21 10 8 16 11 69 73 48 54 81 90 67 52 41 52 55 51 58 60 83 84 62 55 56 101 108 119 106 86 158 181 180 176 159 157 161 165 166 165 172 176 177 180 187 189 197 202 203 201 200 200 199 197 194
21 29 39 17 41 59 76 58 62 75 90 85 67 60 59 70 38 41 31 26 66 53 104 124 129 126 105 69 146 158 162 173 176 185 182 175 174 178 182 181 179 182 190 195 202 204 206 207 205 200 199 200 202 202
19 30 45 35 59 67 71 50 82 86 73 88 62 54 50 36 18 15 2 56 73 111 138 148 146 133 115 102 110 137 150 146 146 168 182 190 189 191 194 199 196 195 199 205 209 212 210 208 205 202 200 199 199 199
9 17 46 44 71 56 89 68 90 76 94 283 83 54 23 8 354 9 67 82 134 145 135 145 160 176 152 136 124 122 130 139 130 130 158 189 195 198 205 210 206 203 201 202 204 206 207 206 203 201 196 192 188 183
11 45 41 50 47 170 62 57 77 98 106 111 110 137 19 282 1 51 135 146 154 152 146 153 165 153 157 159 157 151 156 163 160 155 165 182 196 193 192 198 199 196 196 205 208 205 202 200 197 196 195 191 184 182
2 9 36 356 51 57 47 17 354 50 126 183 90 255 184 204 63 340 214 176 169 166 173 178 186 184 168 158 166 169 174 165 162 134 115 188 168 164 160 175 188 202 218 218 209 201 197 195 196 197 195 192 188 185
80 4 74 187 271 114 183 127 201 196 136 98 210 148 124 88 104 239 214 180 170 185 197 212 214 216 209 212 198 190 187 192 197 204 223 227 240 240 219 214 219 224 226 214 208 205 196 188 189 189 190 192 194 190
91 272 114 118 152 138 58 90 117 111 156 179 198 117 80 157 242 245 149 160 170 190 212 217 205 205 204 201 205 210 214 218 217 226 243 225 210 215 227 229 237 236 230 216 202 199 193 187 185 187 190 191 194 194
102 163 153 184 110 96 136 83 150 200 221 181 133 174 179 198 233 170 182 195 226 215 193 197 198 199 202 201 194 194 196 203 208 232 249 217 210 217 232 239 244 245 214 197 189 185 187 192 193 190 189 191 191 193
131 142 147 25 76 61 98 143 235 223 202 190 167 230 232 219 216 204 194 249 219 161 168 168 166 172 176 179 184 199 213 224 236 232 220 210 212 220 226 224 219 214 198 186 179 176 180 188 192 194 194 194 195 200
65 112 95 112 121 231 183 194 262 252 266 247 259 243 244 244 248 245 233 231 233 202 183 174 174 178 183 194 206 219 235 225 201 214 216 212 217 225 221 211 203 194 187 183 183 182 185 189 192 197 201 201 202 201
30 319 60 124 233 179 162 281 283 272 264 250 240 246 249 235 257 246 236 226 222 201 189 189 197 203 206 217 221 236 247 243 216 211 205 209 209 211 206 196 190 189 190 191 193 197 197 196 198 201 203 205 206 206
241 244 137 306 277 226 262 265 256 259 245 232 237 223 214 203 230 249 227 216 215 214 213 208 210 210 210 210 218 245 278 267 253 209 188 194 196 199 192 186 185 187 191 193 195 198 199 203 204 202 202 202 202 202
282 236 231 267 356 262 229 220 262 283 235 238 229 211 212 215 241 245 234 221 217 219 220 218 219 220 224 228 230 232 232 233 253 208 207 211 210 209 203 195 191 189 190 192 193 194 197 194 195 197 199 198 196 198